Location: Arezzo
(43.4170°N, 11.8830°E)
Time: 01:40:46
(UTC+01:00)

STARLINK-2711 - Pass Details

Date: 27 October 2021
Orbit: 545 x 549 km, 53.1° (Epoch: 30 November)

Event Time Altitude Azimuth Distance (km) Brightness Sun altitude
Exits shadow 04:39:21 12° 118° (ESE) 1,705 6.6 -33.4°
Drops below altitude 10° 04:40:21 10° 104° (ESE) 1,807 6.9 -33.3°
Sets 04:43:55 0° 72° (ENE) 2,713 8.3 -32.6°
